Time,TemperatureF,DewpointF,PressureIn,WindDirection,WindDirectionDegrees,WindSpeedMPH,WindSpeedGustMPH,Humidity,HourlyPrecipIn,Conditions,Clouds,dailyrainin,SolarRadiationWatts/m^2,SoftwareType,DateUTC
2013-09-30 00:14:00,55.7,51.0,30.00,ESE,107,2.0,-999.0,83,-99.99,,,0.00,0,weatherlink.com 1.10,2013-09-30 04:14:00,
2013-09-30 00:29:00,55.0,51.0,30.00,ESE,107,1.0,-999.0,85,-99.99,,,0.00,0,weatherlink.com 1.10,2013-09-30 04:29:00,
2013-09-30 00:44:00,54.5,50.0,30.00,ESE,107,2.0,-999.0,86,-99.99,,,0.00,0,weatherlink.com 1.10,2013-09-30 04:44:00,
2013-09-30 00:59:00,54.1,50.0,30.00,ESE,103,4.0,-999.0,87,-99.99,,,0.00,0,weatherlink.com 1.10,2013-09-30 04:59:00,
2013-09-30 01:14:00,54.0,50.0,30.00,ESE,103,3.0,-999.0,87,-99.99,,,0.00,0,weatherlink.com 1.10,2013-09-30 05:14:00,
2013-09-30 01:29:00,53.9,50.0,30.00,East,98,2.0,-999.0,87,-99.99,,,0.00,0,weatherlink.com 1.10,2013-09-30 05:29:00,
2013-09-30 01:44:00,53.6,50.0,30.00,East,98,4.0,-999.0,88,-99.99,,,0.00,0,weatherlink.com 1.10,2013-09-30 05:44:00,
2013-09-30 01:59:00,53.6,50.0,30.00,East,98,1.0,-999.0,88,-99.99,,,0.00,0,weatherlink.com 1.10,2013-09-30 05:59:00,
2013-09-30 02:14:00,53.5,50.0,30.00,East,98,2.0,-999.0,89,-99.99,,,0.00,0,weatherlink.com 1.10,2013-09-30 06:14:00,
2013-09-30 02:29:00,54.0,51.0,29.99,East,97,4.0,-999.0,89,-99.99,,,0.00,0,weatherlink.com 1.10,2013-09-30 06:29:00,
2013-09-30 02:44:00,54.1,51.0,29.99,East,97,4.0,-999.0,88,-99.99,,,0.00,0,weatherlink.com 1.10,2013-09-30 06:44:00,
2013-09-30 03:14:00,53.7,50.0,29.98,East,97,0.0,-999.0,88,-99.99,,,0.00,0,weatherlink.com 1.10,2013-09-30 07:14:00,
2013-09-30 03:29:00,53.4,50.0,29.99,East,97,0.0,-999.0,88,-99.99,,,0.00,0,weatherlink.com 1.10,2013-09-30 07:29:00,
2013-09-30 03:44:00,53.2,50.0,29.98,East,97,0.0,-999.0,89,-99.99,,,0.00,0,weatherlink.com 1.10,2013-09-30 07:44:00,
2013-09-30 03:59:00,53.1,50.0,29.98,East,97,0.0,-999.0,89,-99.99,,,0.00,0,weatherlink.com 1.10,2013-09-30 07:59:00,
2013-09-30 04:14:00,53.0,50.0,29.99,East,97,2.0,-999.0,89,-99.99,,,0.00,0,weatherlink.com 1.10,2013-09-30 08:14:00,
2013-09-30 04:29:00,52.9,50.0,29.99,East,97,0.0,-999.0,89,-99.99,,,0.00,0,weatherlink.com 1.10,2013-09-30 08:29:00,
2013-09-30 04:44:00,53.1,50.0,29.99,East,97,1.0,-999.0,89,-99.99,,,0.00,0,weatherlink.com 1.10,2013-09-30 08:44:00,
2013-09-30 04:59:00,53.3,50.0,29.99,East,97,0.0,-999.0,89,-99.99,,,0.00,0,weatherlink.com 1.10,2013-09-30 08:59:00,
2013-09-30 05:14:00,53.3,50.0,29.99,East,97,1.0,-999.0,89,-99.99,,,0.00,0,weatherlink.com 1.10,2013-09-30 09:14:00,
2013-09-30 05:29:00,53.0,50.0,29.99,East,97,0.0,-999.0,89,-99.99,,,0.00,0,weatherlink.com 1.10,2013-09-30 09:29:00,
2013-09-30 05:44:00,52.7,50.0,30.00,East,97,1.0,-999.0,89,-99.99,,,0.00,0,weatherlink.com 1.10,2013-09-30 09:44:00,
2013-09-30 05:59:00,52.5,50.0,30.00,East,97,4.0,-999.0,90,-99.99,,,0.00,0,weatherlink.com 1.10,2013-09-30 09:59:00,
2013-09-30 06:14:00,52.7,50.0,30.00,East,96,0.0,-999.0,91,-99.99,,,0.00,0,weatherlink.com 1.10,2013-09-30 10:14:00,
2013-09-30 06:29:00,52.9,50.0,30.00,East,97,2.0,-999.0,90,-99.99,,,0.00,0,weatherlink.com 1.10,2013-09-30 10:29:00,
2013-09-30 06:44:00,52.9,50.0,30.00,East,96,5.0,-999.0,91,-99.99,,,0.00,0,weatherlink.com 1.10,2013-09-30 10:44:00,
2013-09-30 06:59:00,53.0,51.0,30.01,East,98,5.0,-999.0,91,-99.99,,,0.00,0,weatherlink.com 1.10,2013-09-30 10:59:00,
2013-09-30 07:14:00,52.9,50.0,30.01,East,98,1.0,-999.0,90,-99.99,,,0.00,7,weatherlink.com 1.10,2013-09-30 11:14:00,
2013-09-30 07:29:00,52.8,50.0,30.01,East,98,2.0,-999.0,90,-99.99,,,0.00,21,weatherlink.com 1.10,2013-09-30 11:29:00,
2013-09-30 07:44:00,52.9,50.0,30.01,East,98,2.0,-999.0,91,-99.99,,,0.00,46,weatherlink.com 1.10,2013-09-30 11:44:00,
2013-09-30 08:00:00,53.4,51.0,30.01,East,99,2.0,-999.0,91,-99.99,,,0.00,109,weatherlink.com 1.10,2013-09-30 12:00:00,
2013-09-30 08:15:00,54.6,52.0,30.01,East,97,4.0,-999.0,91,-99.99,,,0.00,176,weatherlink.com 1.10,2013-09-30 12:15:00,
2013-09-30 08:30:00,56.5,53.0,30.01,East,94,4.0,-999.0,88,-99.99,,,0.00,232,weatherlink.com 1.10,2013-09-30 12:30:00,
2013-09-30 08:45:00,57.9,53.0,30.01,ESE,117,5.0,-999.0,84,-99.99,,,0.00,130,weatherlink.com 1.10,2013-09-30 12:45:00,
2013-09-30 09:00:00,58.8,53.0,30.01,ESE,107,6.0,-999.0,82,-99.99,,,0.00,163,weatherlink.com 1.10,2013-09-30 13:00:00,
2013-09-30 09:15:00,59.8,54.0,30.01,ESE,121,5.0,-999.0,81,-99.99,,,0.00,155,weatherlink.com 1.10,2013-09-30 13:15:00,
2013-09-30 09:30:00,60.6,55.0,30.01,ESE,107,2.0,-999.0,82,-99.99,,,0.00,214,weatherlink.com 1.10,2013-09-30 13:30:00,
2013-09-30 09:45:00,61.3,55.0,30.00,ESE,119,10.0,-999.0,80,-99.99,,,0.00,236,weatherlink.com 1.10,2013-09-30 13:45:00,
2013-09-30 10:00:00,61.8,55.0,30.00,SE,124,9.0,-999.0,79,-99.99,,,0.00,211,weatherlink.com 1.10,2013-09-30 14:00:00,
2013-09-30 10:15:00,62.3,55.0,30.00,ESE,118,7.0,-999.0,78,-99.99,,,0.00,223,weatherlink.com 1.10,2013-09-30 14:15:00,
2013-09-30 10:30:00,63.1,56.0,30.00,ESE,122,6.0,-999.0,77,-99.99,,,0.00,227,weatherlink.com 1.10,2013-09-30 14:30:00,
2013-09-30 10:45:00,63.8,56.0,30.00,ESE,103,5.0,-999.0,75,-99.99,,,0.00,352,weatherlink.com 1.10,2013-09-30 14:45:00,
2013-09-30 11:00:00,64.3,55.0,30.00,ESE,113,5.0,-999.0,73,-99.99,,,0.00,304,weatherlink.com 1.10,2013-09-30 15:00:00,
2013-09-30 11:15:00,65.0,56.0,30.00,SSE,153,1.0,-999.0,73,-99.99,,,0.00,339,weatherlink.com 1.10,2013-09-30 15:15:00,
2013-09-30 11:30:00,65.9,57.0,29.99,SE,140,4.0,-999.0,72,-99.99,,,0.00,304,weatherlink.com 1.10,2013-09-30 15:30:00,
2013-09-30 11:45:00,66.8,57.0,30.00,SE,141,6.0,-999.0,70,-99.99,,,0.00,318,weatherlink.com 1.10,2013-09-30 15:45:00,
2013-09-30 12:00:00,67.2,57.0,29.99,SE,140,1.0,-999.0,69,-99.99,,,0.00,543,weatherlink.com 1.10,2013-09-30 16:00:00,
2013-09-30 12:15:00,69.2,58.0,29.98,SE,128,2.0,-999.0,67,-99.99,,,0.00,775,weatherlink.com 1.10,2013-09-30 16:15:00,
2013-09-30 12:31:00,70.6,58.0,29.98,SE,140,5.0,-999.0,64,-99.99,,,0.00,758,weatherlink.com 1.10,2013-09-30 16:31:00,
2013-09-30 12:45:00,70.8,57.0,29.98,ESE,117,4.0,-999.0,63,-99.99,,,0.00,362,weatherlink.com 1.10,2013-09-30 16:45:00,
2013-09-30 13:01:00,71.3,58.0,29.97,ESE,123,3.0,-999.0,64,-99.99,,,0.00,371,weatherlink.com 1.10,2013-09-30 17:01:00,
2013-09-30 13:16:00,73.0,58.0,29.97,SE,124,0.0,-999.0,60,-99.99,,,0.00,362,weatherlink.com 1.10,2013-09-30 17:16:00,
2013-09-30 13:31:00,72.9,59.0,29.96,SE,135,1.0,-999.0,61,-99.99,,,0.00,313,weatherlink.com 1.10,2013-09-30 17:31:00,
2013-09-30 13:46:00,73.8,58.0,29.96,SE,135,0.0,-999.0,59,-99.99,,,0.00,258,weatherlink.com 1.10,2013-09-30 17:46:00,
2013-09-30 14:01:00,74.5,59.0,29.95,SE,135,3.0,-999.0,59,-99.99,,,0.00,315,weatherlink.com 1.10,2013-09-30 18:01:00,
2013-09-30 14:16:00,74.8,59.0,29.95,SE,135,0.0,-999.0,58,-99.99,,,0.00,274,weatherlink.com 1.10,2013-09-30 18:16:00,
2013-09-30 14:31:00,75.4,59.0,29.95,SE,135,1.0,-999.0,58,-99.99,,,0.00,237,weatherlink.com 1.10,2013-09-30 18:31:00,
2013-09-30 14:46:00,75.5,60.0,29.95,SE,135,0.0,-999.0,59,-99.99,,,0.00,250,weatherlink.com 1.10,2013-09-30 18:46:00,
2013-09-30 15:01:00,75.1,59.0,29.95,SE,135,0.0,-999.0,57,-99.99,,,0.00,302,weatherlink.com 1.10,2013-09-30 19:01:00,
2013-09-30 15:16:00,74.9,59.0,29.94,SE,135,0.0,-999.0,57,-99.99,,,0.00,297,weatherlink.com 1.10,2013-09-30 19:16:00,
2013-09-30 15:31:00,75.6,59.0,29.94,SE,135,0.0,-999.0,57,-99.99,,,0.00,626,weatherlink.com 1.10,2013-09-30 19:31:00,
2013-09-30 15:46:00,76.1,59.0,29.93,SE,135,0.0,-999.0,56,-99.99,,,0.00,466,weatherlink.com 1.10,2013-09-30 19:46:00,
2013-09-30 16:01:00,76.2,59.0,29.93,ESE,107,0.0,-999.0,55,-99.99,,,0.00,429,weatherlink.com 1.10,2013-09-30 20:01:00,
2013-09-30 16:16:00,76.1,59.0,29.93,ESE,106,0.0,-999.0,55,-99.99,,,0.00,385,weatherlink.com 1.10,2013-09-30 20:16:00,
2013-09-30 16:31:00,77.1,60.0,29.92,ESE,106,0.0,-999.0,56,-99.99,,,0.00,362,weatherlink.com 1.10,2013-09-30 20:31:00,
2013-09-30 16:46:00,77.5,59.0,29.92,ESE,105,0.0,-999.0,53,-99.99,,,0.00,313,weatherlink.com 1.10,2013-09-30 20:46:00,
2013-09-30 17:01:00,76.9,59.0,29.92,ESE,113,3.0,-999.0,55,-99.99,,,0.00,262,weatherlink.com 1.10,2013-09-30 21:01:00,
2013-09-30 17:16:00,76.4,59.0,29.92,ESE,113,1.0,-999.0,56,-99.99,,,0.00,221,weatherlink.com 1.10,2013-09-30 21:16:00,
2013-09-30 17:31:00,76.0,60.0,29.92,ESE,113,1.0,-999.0,57,-99.99,,,0.00,176,weatherlink.com 1.10,2013-09-30 21:31:00,
2013-09-30 17:46:00,75.0,60.0,29.92,ESE,113,4.0,-999.0,59,-99.99,,,0.00,127,weatherlink.com 1.10,2013-09-30 21:46:00,
2013-09-30 18:01:00,74.0,60.0,29.92,ESE,113,0.0,-999.0,61,-99.99,,,0.00,76,weatherlink.com 1.10,2013-09-30 22:01:00,
2013-09-30 18:16:00,73.5,60.0,29.92,ESE,113,0.0,-999.0,63,-99.99,,,0.00,30,weatherlink.com 1.10,2013-09-30 22:16:00,
2013-09-30 18:31:00,72.0,60.0,29.93,ESE,113,0.0,-999.0,65,-99.99,,,0.00,21,weatherlink.com 1.10,2013-09-30 22:31:00,
2013-09-30 18:46:00,70.5,60.0,29.93,ESE,113,0.0,-999.0,70,-99.99,,,0.00,0,weatherlink.com 1.10,2013-09-30 22:46:00,
2013-09-30 19:01:00,68.7,60.0,29.93,ESE,113,0.0,-999.0,73,-99.99,,,0.00,0,weatherlink.com 1.10,2013-09-30 23:01:00,
2013-09-30 19:16:00,67.6,59.0,29.93,ESE,113,0.0,-999.0,75,-99.99,,,0.00,0,weatherlink.com 1.10,2013-09-30 23:16:00,
2013-09-30 19:31:00,66.6,59.0,29.94,ESE,113,0.0,-999.0,77,-99.99,,,0.00,0,weatherlink.com 1.10,2013-09-30 23:31:00,
2013-09-30 19:46:00,65.7,59.0,29.94,ESE,113,0.0,-999.0,80,-99.99,,,0.00,0,weatherlink.com 1.10,2013-09-30 23:46:00,
2013-09-30 20:01:00,64.6,59.0,29.94,ESE,113,0.0,-999.0,82,-99.99,,,0.00,0,weatherlink.com 1.10,2013-10-01 00:01:00,
2013-09-30 20:16:00,64.1,59.0,29.94,ESE,113,0.0,-999.0,84,-99.99,,,0.00,0,weatherlink.com 1.10,2013-10-01 00:16:00,
2013-09-30 20:31:00,63.5,59.0,29.95,ESE,113,0.0,-999.0,84,-99.99,,,0.00,0,weatherlink.com 1.10,2013-10-01 00:31:00,
2013-09-30 20:46:00,63.0,59.0,29.95,ESE,113,0.0,-999.0,85,-99.99,,,0.00,0,weatherlink.com 1.10,2013-10-01 00:46:00,
2013-09-30 21:01:00,62.6,58.0,29.95,ESE,113,0.0,-999.0,86,-99.99,,,0.00,0,weatherlink.com 1.10,2013-10-01 01:01:00,
2013-09-30 21:16:00,62.1,58.0,29.96,SW,220,5.0,-999.0,87,-99.99,,,0.00,0,weatherlink.com 1.10,2013-10-01 01:16:00,
2013-09-30 21:31:00,62.2,59.0,29.96,WSW,238,0.0,-999.0,88,-99.99,,,0.00,0,weatherlink.com 1.10,2013-10-01 01:31:00,
2013-09-30 21:46:00,62.3,59.0,29.95,WSW,238,0.0,-999.0,88,-99.99,,,0.00,0,weatherlink.com 1.10,2013-10-01 01:46:00,
2013-09-30 22:01:00,62.2,59.0,29.96,WSW,241,2.0,-999.0,88,-99.99,,,0.00,0,weatherlink.com 1.10,2013-10-01 02:01:00,
2013-09-30 22:16:00,62.4,59.0,29.97,WSW,237,4.0,-999.0,88,-99.99,,,0.00,0,weatherlink.com 1.10,2013-10-01 02:16:00,
2013-09-30 22:31:00,62.6,59.0,29.96,SW,232,1.0,-999.0,88,-99.99,,,0.00,0,weatherlink.com 1.10,2013-10-01 02:31:00,
2013-09-30 22:46:00,62.7,59.0,29.96,SW,232,0.0,-999.0,88,-99.99,,,0.00,0,weatherlink.com 1.10,2013-10-01 02:46:00,
2013-09-30 23:01:00,62.7,59.0,29.96,SW,232,1.0,-999.0,88,-99.99,,,0.00,0,weatherlink.com 1.10,2013-10-01 03:01:00,
2013-09-30 23:16:00,62.7,59.0,29.96,SW,232,1.0,-999.0,88,-99.99,,,0.00,0,weatherlink.com 1.10,2013-10-01 03:16:00,
2013-09-30 23:31:00,62.6,59.0,29.96,SW,232,2.0,-999.0,88,-99.99,,,0.00,0,weatherlink.com 1.10,2013-10-01 03:31:00,
2013-09-30 23:46:00,62.6,59.0,29.96,SW,232,1.0,-999.0,89,-99.99,,,0.00,0,weatherlink.com 1.10,2013-10-01 03:46:00,